DELTA 1 DEB, 7850

Orbit data source: Space-Track

DELTA 1 DEB, 7850 is space debris in SSO originally from a launch on Sun, 23 Jul 1972 UTC launched from the Air Force Western Test Range (AFWTR). Debris objects in space refer to the collection of defunct objects orbiting the Earth. Examples of debris include non-operational satellites, rocket bodies, and fragments generated from explosions, collisions, or faulty payload assembly.

Loading next visibility...
Identifier
7850, 1972-058W
Orbit
SSO
Country
Flag of USUS
Related business
Manufacturer
Unknown
Mission
Spacecraft
Bus & Motor
Unknown
Mass
Unknown
Launch date (UTC)
1972-07-23 (54 years ago)
Launch vehicle
Unknown
Launch site
Air Force Western Test Range (AFWTR)
Object type
Payload
Rocket body
Debris
Shape & HBR
Unknown shape, 0.5 m
Radar Cross Section
Small (<0.1 m²)

Expand to show TLE details & history
Last TLE update: 7 hours ago

TLE from 7 hours ago
0 DELTA 1 DEB
1 07850U 72058W   26121.29671830  .00003426  00000-0  60620-3 0  9992
2 07850  98.2758  76.1838 0152425 209.2747 149.9850 14.60708011613345
Epoch: 2026-05-01T07:07Z
TLE epoch observation values (Epoch: 2026-05-01T07:07:16.461Z)
Latitude
0.00008°
Longitude
110.1342°
Altitude
787.595 km
Speed
7.41 km/s
True Right ascension
05h 04m 44s
True Declination
0° 00' 00"
Sunlit
Object was in daylight at epoch
Visualization orbit readout
Latitude
Unknown
Longitude
Unknown
Altitude
Unknown
Speed
Unknown
Apparent Right ascension
Unknown
Apparent Declination
Unknown
Sunlit
N/A
Visualization observer readout
Local Sidereal Time
21:46:57
Azimuth
Unknown
Elevation
Unknown
Doppler factor
Unknown
Orbital elements
Apogee altitude
795.677 km
Perigee altitude
580.266 km
Semi-major axis
7,066.109 km
Eccentricity
0.01524
Inclination
98.2758°
RAAN
76.1838°
Arg. of periapsis
209.2747°
True anomaly
150.8445°
Mean anomaly
149.985°
Eccentric anomaly
150.41616°
Mean motion
3.65404 °/min
Orbital period
98.52 mins
BSTAR
0.0006062
Loading maneuver chart data...
Computing Atmospheric mass density...
Loading historical data...
Loading historical data...
Loading historical data...
Loading historical data...
Loading historical data...
Loading historical data...
Loading historical data...

Documentation

Showing up to 5 results
|